AUA165Z LOWW-EDDL

Flight info

Callsign AUA165Z
Flight time 1h 15m
Altitude 34000
Route MEDIX2B/16 MEDIX DCT LAMSI/N0446F360 DCT MOOCE DCT TESDU DCT AMETU T852 TINSA T854 DOMUX DOMUX1A
Aircraft A321/M-SDE2E3FGIJ1RWXY/LB1

Departure

Time 2026-05-04 17:43
Airport Vienna International Airport (LOWW)

Arrival

Time 2026-05-04 18:59
Airport Düsseldorf Airport (EDDL)
Time Latitude Longitude Altitude Speed Heading
2026-05-04 17:05 48.12024 16.56929 622 ft 0 kts 27°
2026-05-04 17:35 48.12023 16.56928 614 ft 1 kts 27°
2026-05-04 17:36 48.12005 16.56915 630 ft 0 kts 26°
2026-05-04 17:36 48.11993 16.56903 626 ft 0 kts 58°
2026-05-04 17:36 48.11989 16.56870 628 ft 0 kts 112°
2026-05-04 17:36 48.11996 16.56848 627 ft 0 kts 116°
2026-05-04 17:39 48.11989 16.56870 620 ft 5 kts 116°
2026-05-04 17:40 48.11966 16.56942 617 ft 11 kts 116°
2026-05-04 17:40 48.11926 16.57061 618 ft 14 kts 116°
2026-05-04 17:40 48.11866 16.57197 615 ft 17 kts 140°
2026-05-04 17:40 48.11868 16.57314 621 ft 16 kts
2026-05-04 17:41 48.11937 16.57291 618 ft 11 kts 346°
2026-05-04 17:41 48.11997 16.57370 615 ft 15 kts 73°
2026-05-04 17:41 48.12005 16.57534 620 ft 17 kts 104°
2026-05-04 17:41 48.11975 16.57709 622 ft 19 kts 104°
2026-05-04 17:42 48.11945 16.57827 622 ft 10 kts 146°
2026-05-04 17:42 48.11919 16.57842 622 ft 0 kts 164°
2026-05-04 17:42 48.11913 16.57845 622 ft 6 kts 164°
2026-05-04 17:43 48.11608 16.57973 617 ft 83 kts 165°
2026-05-04 17:43 48.10830 16.58302 621 ft 146 kts 163°
2026-05-04 17:43 48.09745 16.58762 945 ft 169 kts 163°
2026-05-04 17:43 48.08606 16.59237 1721 ft 172 kts 167°
2026-05-04 17:44 48.07444 16.59700 2308 ft 179 kts 167°
2026-05-04 17:44 48.06179 16.60157 2729 ft 188 kts 175°
2026-05-04 17:44 48.04912 16.59828 3277 ft 191 kts 204°
2026-05-04 17:44 48.03902 16.58519 3820 ft 198 kts 230°
2026-05-04 17:45 48.03187 16.56664 4247 ft 213 kts 239°
2026-05-04 17:45 48.02592 16.54592 4826 ft 222 kts 253°
2026-05-04 17:45 48.02461 16.52267 5485 ft 229 kts 267°
2026-05-04 17:45 48.02500 16.49863 6156 ft 233 kts 269°
2026-05-04 17:46 48.02535 16.47372 6579 ft 249 kts 269°
2026-05-04 17:46 48.02557 16.44680 6856 ft 271 kts 268°
2026-05-04 17:46 48.02573 16.41756 7116 ft 292 kts 268°
2026-05-04 17:46 48.02594 16.38615 7363 ft 312 kts 270°
2026-05-04 17:47 48.02997 16.35326 7606 ft 335 kts 286°
2026-05-04 17:47 48.03894 16.32011 7859 ft 353 kts 291°
2026-05-04 17:47 48.04896 16.28568 8085 ft 369 kts 291°
2026-05-04 17:47 48.05924 16.24984 8427 ft 381 kts 291°
2026-05-04 17:48 48.06954 16.21309 8997 ft 385 kts 290°
2026-05-04 17:48 48.07980 16.17600 9606 ft 388 kts 290°
2026-05-04 17:48 48.08973 16.13827 10147 ft 391 kts 288°
2026-05-04 17:48 48.09879 16.09980 10683 ft 394 kts 287°
2026-05-04 17:49 48.10781 16.06091 11225 ft 397 kts 287°
2026-05-04 17:49 48.11688 16.02178 11750 ft 400 kts 287°
2026-05-04 17:49 48.12605 15.98230 12273 ft 403 kts 287°
2026-05-04 17:49 48.13526 15.94260 12835 ft 404 kts 287°
2026-05-04 17:50 48.14440 15.90265 18354 ft 408 kts 285°
2026-05-04 17:50 48.15345 15.86163 18404 ft 421 kts 287°
2026-05-04 17:50 48.16330 15.81983 18502 ft 431 kts 287°
2026-05-04 17:50 48.17335 15.77707 18724 ft 437 kts 287°
2026-05-04 17:51 48.18337 15.73394 19062 ft 439 kts 287°
2026-05-04 17:51 48.19336 15.69069 19417 ft 440 kts 287°
2026-05-04 17:51 48.20333 15.64719 19772 ft 442 kts 287°
2026-05-04 17:51 48.21331 15.60354 20128 ft 444 kts 287°
2026-05-04 17:52 48.22332 15.55967 20453 ft 446 kts 288°
2026-05-04 17:52 48.23335 15.51549 20743 ft 449 kts 288°
2026-05-04 17:52 48.24345 15.47113 21087 ft 450 kts 288°
2026-05-04 17:52 48.25356 15.42661 21467 ft 451 kts 288°
2026-05-04 17:53 48.26367 15.38203 21845 ft 451 kts 288°
2026-05-04 17:53 48.27378 15.33736 22235 ft 452 kts 288°
2026-05-04 17:53 48.28388 15.29274 22637 ft 452 kts 288°
2026-05-04 17:53 48.29394 15.24802 23049 ft 452 kts 288°
2026-05-04 17:54 48.30398 15.20335 23454 ft 452 kts 288°
2026-05-04 17:54 48.31399 15.15862 23805 ft 451 kts 288°
2026-05-04 17:54 48.32397 15.11390 24152 ft 451 kts 288°
2026-05-04 17:54 48.33392 15.06928 24497 ft 451 kts 288°
2026-05-04 17:55 48.34387 15.02464 24846 ft 450 kts 288°
2026-05-04 17:55 48.35378 14.98005 25203 ft 449 kts 288°
2026-05-04 17:55 48.36366 14.93551 25569 ft 448 kts 288°
2026-05-04 17:55 48.37348 14.89110 25940 ft 447 kts 287°
2026-05-04 17:56 48.38325 14.84676 26315 ft 446 kts 287°
2026-05-04 17:56 48.39298 14.80254 26702 ft 445 kts 287°
2026-05-04 17:56 48.40267 14.75844 27087 ft 443 kts 287°
2026-05-04 17:56 48.41231 14.71444 27470 ft 442 kts 287°
2026-05-04 17:57 48.42189 14.67062 27863 ft 440 kts 287°
2026-05-04 17:57 48.43142 14.62690 28258 ft 439 kts 287°
2026-05-04 17:57 48.44080 14.58390 28653 ft 437 kts 287°
2026-05-04 17:57 48.45024 14.54050 29059 ft 435 kts 287°
2026-05-04 17:58 48.45958 14.49736 29463 ft 433 kts 287°
2026-05-04 17:58 48.46888 14.45434 29887 ft 430 kts 287°
2026-05-04 17:58 48.47814 14.41156 30258 ft 428 kts 287°
2026-05-04 17:58 48.48733 14.36906 30623 ft 425 kts 287°
2026-05-04 17:59 48.49642 14.32683 30958 ft 424 kts 287°
2026-05-04 17:59 48.50544 14.28482 31269 ft 422 kts 286°
2026-05-04 17:59 48.52350 14.20045 31884 ft 420 kts 286°
2026-05-04 18:00 48.53243 14.15850 32158 ft 420 kts 286°
2026-05-04 18:00 48.54137 14.11658 32424 ft 420 kts 286°
2026-05-04 18:00 48.55025 14.07473 32691 ft 419 kts 286°
2026-05-04 18:00 48.55915 14.03276 32957 ft 419 kts 286°
2026-05-04 18:01 48.56800 13.99089 33227 ft 418 kts 286°
2026-05-04 18:01 48.57684 13.94908 33504 ft 418 kts 285°
2026-05-04 18:01 48.58564 13.90730 33776 ft 416 kts 285°
2026-05-04 18:02 48.60327 13.82338 33937 ft 424 kts 285°
2026-05-04 18:02 48.61222 13.78056 33929 ft 430 kts 285°
2026-05-04 18:02 48.63036 13.69355 34095 ft 436 kts 285°
2026-05-04 18:03 48.63947 13.64981 34312 ft 435 kts 285°
2026-05-04 18:03 48.64891 13.60647 34543 ft 435 kts 289°
2026-05-04 18:03 48.66204 13.56517 34795 ft 436 kts 298°
2026-05-04 18:03 48.67887 13.52708 35040 ft 436 kts 302°
2026-05-04 18:04 48.69642 13.48971 35274 ft 434 kts 303°
2026-05-04 18:04 48.71387 13.45259 35532 ft 432 kts 302°
2026-05-04 18:04 48.74830 13.37859 35943 ft 430 kts 302°
2026-05-04 18:05 48.76526 13.34189 35953 ft 434 kts 302°
2026-05-04 18:05 48.80011 13.26615 35925 ft 441 kts 302°
2026-05-04 18:06 48.85285 13.15129 35915 ft 443 kts 302°
2026-05-04 18:06 48.88800 13.07448 35919 ft 443 kts 302°
2026-05-04 18:07 48.92310 12.99759 35915 ft 443 kts 302°
2026-05-04 18:07 48.95816 12.92050 35918 ft 443 kts 302°
2026-05-04 18:08 48.99309 12.84342 35930 ft 443 kts 302°
2026-05-04 18:08 49.02806 12.76605 35926 ft 443 kts 301°
2026-05-04 18:09 49.09764 12.61155 35926 ft 442 kts 301°
2026-05-04 18:10 49.13236 12.53407 35935 ft 442 kts 301°
2026-05-04 18:10 49.16704 12.45666 35950 ft 442 kts 301°
2026-05-04 18:11 49.20162 12.37910 35937 ft 442 kts 301°
2026-05-04 18:11 49.23623 12.30132 35944 ft 442 kts 301°
2026-05-04 18:12 49.27075 12.22342 35941 ft 442 kts 301°
2026-05-04 18:12 49.30518 12.14547 35944 ft 441 kts 301°
2026-05-04 18:13 49.33953 12.06743 35961 ft 443 kts 301°
2026-05-04 18:14 49.39110 11.95004 35963 ft 442 kts 300°
2026-05-04 18:14 49.42542 11.87159 35965 ft 443 kts 300°
2026-05-04 18:15 49.49384 11.71439 35965 ft 442 kts 300°
2026-05-04 18:16 49.52805 11.63555 35967 ft 444 kts 300°
2026-05-04 18:16 49.56240 11.55656 35965 ft 444 kts 302°
2026-05-04 18:17 49.62282 11.44719 35963 ft 447 kts 307°
2026-05-04 18:18 49.68406 11.33901 35948 ft 445 kts 307°
2026-05-04 18:18 49.72478 11.26677 35951 ft 446 kts 307°
2026-05-04 18:19 49.78585 11.15795 35947 ft 446 kts 307°
2026-05-04 18:19 49.82648 11.08540 35949 ft 446 kts 307°
2026-05-04 18:20 49.86704 11.01266 35950 ft 446 kts 307°
2026-05-04 18:20 49.90072 10.95210 35972 ft 446 kts 307°
2026-05-04 18:21 49.94108 10.87941 35957 ft 443 kts 307°
2026-05-04 18:21 49.98124 10.80682 35955 ft 444 kts 307°
2026-05-04 18:22 50.02146 10.73394 35960 ft 443 kts 307°
2026-05-04 18:22 50.06156 10.66105 35962 ft 444 kts 307°
2026-05-04 18:23 50.10166 10.58806 35959 ft 443 kts 307°
2026-05-04 18:23 50.14171 10.51495 35965 ft 444 kts 306°
2026-05-04 18:24 50.18177 10.44152 35973 ft 444 kts 306°
2026-05-04 18:24 50.21993 10.36616 35962 ft 440 kts 301°
2026-05-04 18:25 50.25497 10.28779 35959 ft 440 kts 301°
2026-05-04 18:25 50.29019 10.20941 35960 ft 440 kts 301°
2026-05-04 18:26 50.32528 10.13074 35966 ft 443 kts 300°
2026-05-04 18:26 50.36041 10.05167 35966 ft 441 kts 300°
2026-05-04 18:27 50.39518 9.97328 35965 ft 441 kts 300°
2026-05-04 18:27 50.43015 9.89412 35967 ft 441 kts 300°
2026-05-04 18:28 50.46503 9.81488 35977 ft 441 kts 300°
2026-05-04 18:28 50.49979 9.73569 35979 ft 440 kts 300°
2026-05-04 18:29 50.53454 9.65634 35968 ft 441 kts 300°
2026-05-04 18:29 50.56922 9.57685 35969 ft 441 kts 300°
2026-05-04 18:30 50.60386 9.49732 35682 ft 440 kts 300°
2026-05-04 18:30 50.62107 9.45767 35357 ft 439 kts 300°
2026-05-04 18:30 50.63831 9.41792 34999 ft 439 kts 300°
2026-05-04 18:31 50.65549 9.37824 34639 ft 439 kts 300°
2026-05-04 18:31 50.67268 9.33845 34291 ft 439 kts 299°
2026-05-04 18:31 50.68989 9.29855 33927 ft 440 kts 299°
2026-05-04 18:31 50.70709 9.25859 33515 ft 441 kts 299°
2026-05-04 18:32 50.72434 9.21851 33100 ft 442 kts 299°
2026-05-04 18:32 50.74162 9.17830 32700 ft 443 kts 299°
2026-05-04 18:32 50.75892 9.13793 32296 ft 444 kts 299°
2026-05-04 18:32 50.77626 9.09746 31906 ft 445 kts 299°
2026-05-04 18:33 50.79357 9.05691 31510 ft 446 kts 299°
2026-05-04 18:33 50.81097 9.01619 31053 ft 447 kts 299°
2026-05-04 18:33 50.82842 8.97545 30571 ft 449 kts 300°
2026-05-04 18:33 50.84738 8.93591 30090 ft 453 kts 303°
2026-05-04 18:34 50.86699 8.89671 29532 ft 454 kts 303°
2026-05-04 18:34 50.88663 8.85739 28978 ft 456 kts 303°
2026-05-04 18:34 50.90634 8.81792 28430 ft 458 kts 304°
2026-05-04 18:34 50.92613 8.77833 27894 ft 460 kts 304°
2026-05-04 18:35 50.94606 8.73841 27373 ft 462 kts 304°
2026-05-04 18:35 50.96602 8.69837 26856 ft 463 kts 304°
2026-05-04 18:35 50.98599 8.65822 26352 ft 465 kts 304°
2026-05-04 18:35 51.00631 8.61813 26031 ft 469 kts 307°
2026-05-04 18:36 51.03035 8.58250 25955 ft 476 kts 319°
2026-05-04 18:36 51.05778 8.55285 25954 ft 477 kts 323°
2026-05-04 18:36 51.08567 8.52416 25974 ft 478 kts 323°
2026-05-04 18:36 51.11358 8.49545 25979 ft 478 kts 323°
2026-05-04 18:37 51.14149 8.46657 25969 ft 478 kts 323°
2026-05-04 18:37 51.16924 8.43773 25690 ft 477 kts 323°
2026-05-04 18:37 51.19709 8.40866 25172 ft 478 kts 323°
2026-05-04 18:37 51.22492 8.37959 24613 ft 479 kts 323°
2026-05-04 18:38 51.25279 8.35046 24032 ft 479 kts 323°
2026-05-04 18:38 51.28057 8.32139 23370 ft 475 kts 324°
2026-05-04 18:38 51.30806 8.29255 22583 ft 470 kts 324°
2026-05-04 18:38 51.33525 8.26399 21785 ft 466 kts 324°
2026-05-04 18:39 51.36220 8.23562 21012 ft 462 kts 324°
2026-05-04 18:39 51.38891 8.20748 20259 ft 458 kts 323°
2026-05-04 18:39 51.41547 8.17947 19524 ft 455 kts 324°
2026-05-04 18:39 51.44151 8.15103 18805 ft 453 kts 320°
2026-05-04 18:40 51.46407 8.11651 18068 ft 446 kts 307°
2026-05-04 18:40 51.48074 8.07526 17344 ft 437 kts 293°
2026-05-04 18:40 51.49078 8.03011 16849 ft 422 kts 280°
2026-05-04 18:40 51.49432 7.98463 16518 ft 401 kts 268°
2026-05-04 18:41 51.49206 7.94130 16230 ft 381 kts 257°
2026-05-04 18:41 51.48566 7.90118 15979 ft 363 kts 251°
2026-05-04 18:41 51.47868 7.86317 15754 ft 348 kts 251°
2026-05-04 18:41 51.47193 7.82645 15541 ft 342 kts 251°
2026-05-04 18:42 51.46534 7.79017 15340 ft 333 kts 251°
2026-05-04 18:42 51.45907 7.75525 15131 ft 319 kts 251°
2026-05-04 18:42 51.45310 7.72186 14924 ft 305 kts 251°
2026-05-04 18:42 51.44737 7.68988 14729 ft 291 kts 251°
2026-05-04 18:43 51.44196 7.65975 14525 ft 279 kts 251°
2026-05-04 18:43 51.43663 7.63013 14314 ft 267 kts 251°
2026-05-04 18:43 51.43151 7.60176 14116 ft 265 kts 251°
2026-05-04 18:43 51.42644 7.57377 13965 ft 265 kts 251°
2026-05-04 18:44 51.42122 7.54551 13937 ft 264 kts 248°
2026-05-04 18:44 51.41625 7.52747 13939 ft 262 kts 238°
2026-05-04 18:44 51.40314 7.49504 13969 ft 261 kts 233°
2026-05-04 18:44 51.39292 7.47097 13888 ft 261 kts 233°
2026-05-04 18:45 51.38276 7.44691 13687 ft 260 kts 234°
2026-05-04 18:45 51.37269 7.42289 13437 ft 259 kts 234°
2026-05-04 18:45 51.36254 7.39864 13158 ft 259 kts 234°
2026-05-04 18:45 51.35265 7.37499 12827 ft 257 kts 234°
2026-05-04 18:46 51.34274 7.35133 12453 ft 255 kts 234°
2026-05-04 18:46 51.33301 7.32809 12074 ft 248 kts 234°
2026-05-04 18:46 51.32346 7.30523 11699 ft 246 kts 234°
2026-05-04 18:46 51.31399 7.28253 11321 ft 244 kts 234°
2026-05-04 18:47 51.30458 7.26002 10961 ft 243 kts 234°
2026-05-04 18:47 51.29523 7.23766 10603 ft 241 kts 234°
2026-05-04 18:47 51.28592 7.21543 10339 ft 240 kts 234°
2026-05-04 18:47 51.27663 7.19330 10094 ft 239 kts 234°
2026-05-04 18:48 51.26747 7.17125 9814 ft 238 kts 236°
2026-05-04 18:48 51.26134 7.14663 9468 ft 245 kts 260°
2026-05-04 18:48 51.26352 7.11953 9103 ft 252 kts 291°
2026-05-04 18:48 51.27422 7.09726 8749 ft 257 kts 317°
2026-05-04 18:49 51.28864 7.08037 8415 ft 258 kts 324°
2026-05-04 18:49 51.30505 7.06886 8055 ft 260 kts 349°
2026-05-04 18:49 51.32290 7.07139 7710 ft 262 kts 22°
2026-05-04 18:49 51.33737 7.08842 7443 ft 260 kts 52°
2026-05-04 18:50 51.34793 7.11158 7201 ft 257 kts 58°
2026-05-04 18:50 51.35800 7.13533 6959 ft 257 kts 58°
2026-05-04 18:50 51.36812 7.15855 6717 ft 252 kts 56°
2026-05-04 18:50 51.37838 7.18126 6480 ft 251 kts 55°
2026-05-04 18:51 51.38878 7.20391 6220 ft 256 kts 54°
2026-05-04 18:51 51.40008 7.22583 5956 ft 256 kts 39°
2026-05-04 18:51 51.41557 7.23920 5682 ft 253 kts 12°
2026-05-04 18:51 51.43278 7.23991 5424 ft 246 kts 343°
2026-05-04 18:52 51.44773 7.22800 5182 ft 238 kts 314°
2026-05-04 18:52 51.45690 7.20677 4934 ft 232 kts 285°
2026-05-04 18:52 51.45879 7.18140 4695 ft 230 kts 265°
2026-05-04 18:52 51.45784 7.15582 4450 ft 230 kts 263°
2026-05-04 18:53 51.45655 7.13039 4205 ft 229 kts 260°
2026-05-04 18:53 51.45176 7.10637 3946 ft 227 kts 242°
2026-05-04 18:53 51.44364 7.08482 3697 ft 225 kts 232°
2026-05-04 18:53 51.43389 7.06544 3439 ft 219 kts 232°
2026-05-04 18:54 51.42483 7.04639 3178 ft 211 kts 231°
2026-05-04 18:54 51.41616 7.02804 2983 ft 199 kts 231°
2026-05-04 18:54 51.40834 7.01151 2995 ft 175 kts 231°
2026-05-04 18:54 51.40103 6.99606 2998 ft 173 kts 231°
2026-05-04 18:55 51.39373 6.98065 2994 ft 174 kts 231°
2026-05-04 18:55 51.37916 6.94986 2817 ft 173 kts 231°
2026-05-04 18:55 51.37186 6.93446 2604 ft 173 kts 231°
2026-05-04 18:56 51.36462 6.91919 2382 ft 169 kts 231°
2026-05-04 18:56 51.35760 6.90438 2146 ft 167 kts 231°
2026-05-04 18:56 51.35047 6.88932 1915 ft 169 kts 230°
2026-05-04 18:56 51.34341 6.87443 1697 ft 166 kts 231°
2026-05-04 18:57 51.33674 6.86038 1474 ft 151 kts 230°
2026-05-04 18:57 51.33062 6.84749 1277 ft 145 kts 230°
2026-05-04 18:57 51.32457 6.83473 1062 ft 146 kts 228°
2026-05-04 18:57 51.31842 6.82170 865 ft 147 kts 229°
2026-05-04 18:58 51.31222 6.80870 678 ft 146 kts 230°
2026-05-04 18:58 51.30616 6.79584 487 ft 142 kts 229°
2026-05-04 18:58 51.30024 6.78339 287 ft 139 kts 230°
2026-05-04 18:58 51.29455 6.77149 141 ft 126 kts 231°
2026-05-04 18:59 51.29035 6.76268 140 ft 63 kts 234°
2026-05-04 18:59 51.28847 6.75877 136 ft 35 kts 227°
2026-05-04 18:59 51.28678 6.75688 132 ft 25 kts 191°
2026-05-04 18:59 51.28579 6.75683 128 ft 7 kts 169°
2026-05-04 19:00 51.28560 6.75689 126 ft 4 kts 166°
2026-05-04 19:00 51.28518 6.75715 127 ft 9 kts 153°
2026-05-04 19:00 51.28452 6.75787 130 ft 14 kts 143°
2026-05-04 19:00 51.28411 6.75837 132 ft 0 kts 142°
2026-05-04 19:03 51.28403 6.75847 132 ft 5 kts 142°
2026-05-04 19:04 51.28375 6.75882 133 ft 11 kts 142°
2026-05-04 19:04 51.28284 6.75986 135 ft 19 kts 167°
2026-05-04 19:04 51.28178 6.75935 134 ft 15 kts 204°
2026-05-04 19:04 51.28143 6.75910 134 ft 0 kts 204°
2026-05-04 19:05 51.28142 6.75910 134 ft 1 kts 205°
2026-05-04 19:05 51.28121 6.75894 134 ft 6 kts 204°
2026-05-04 19:05 51.28069 6.75856 134 ft 11 kts 204°
2026-05-04 19:05 51.27986 6.75823 135 ft 15 kts 182°
2026-05-04 19:06 51.27869 6.75815 135 ft 19 kts 180°
2026-05-04 19:06 51.27742 6.75812 135 ft 17 kts 180°
2026-05-04 19:06 51.27615 6.75829 136 ft 20 kts 150°
2026-05-04 19:06 51.27543 6.75897 136 ft 7 kts 117°
2026-05-04 19:07 51.27555 6.75962 136 ft 2 kts 62°
2026-05-04 19:07 51.27561 6.75981 136 ft 0 kts 62°